Location: Amherst
(42.5000°N, 72.5000°W)
Time: 09:57:29
(UTC-04:00)

ISS - Pass Details

Date: 19 July 2018
Orbit: 402 x 408 km, 51.6° (Epoch: 23 July)

Event Time Altitude Azimuth Distance (km) Brightness Sun altitude
Rises 01:41:52 0° 297° (WNW) 2,328 0.2 -25.8°
Reaches altitude 10° 01:44:30 10° 320° (NW) 1,469 -0.6 -25.7°
Maximum altitude 01:46:42 17° 2° (N) 1,140 -0.7 -25.6°
Drops below altitude 10° 01:48:54 10° 44° (NE) 1,471 -0.2 -25.5°
Sets 01:51:33 0° 66° (ENE) 2,332 0.5 -25.4°
